Tracking 29747 objects as of 9-Oct-2024
HD Live streaming from Space Station
objects crossing your sky now

SL-12 R/B(2)

Track SL-12 R/B(2) now!


NORAD ID: 28119
Int'l Code: 2003-053E
Perigee: 34,934.4 km
Apogee: 36,782.7 km
Inclination: 13.2 °
Period: 1,439.4 minutes
Semi major axis: 42229 km
RCS: 1.9952 m2 (large)
Launch date: November 24, 2003
Source: Commonwealth of Independent States (former USSR) (CIS)
Launch site: TYURATAM MISSILE AND SPACE COMPLEX (TTMTR)

Note: This is a ROCKET BODY
Your satellite tracking list
Your tracking list is empty




NASA's NSSDC Master Catalog

Two Line Element Set (TLE):
1 28119U 03053E   24281.15188369 -.00000315  00000-0  00000-0 0  9990
2 28119  13.1679  17.7922 0218835 287.2353  59.7474  1.00040955 78538
Source of the keplerian elements: AFSPC